Piloto Civil Norberto Fernandez current weather conditions

sailwx.info

Wind from 270 at 26 knots gusting 38

Air temperature 4.0° C
Visibility: greater than 5.4 NM
Dewpoint -3.0° C

Last reported at 2014-Jul-22 18:00 UTC.
Time now 2014-Jul-22 19:52 UTC

Location: S 51°37' W 069°19'.
View on Google Maps.

See reports from other nearby stations

  
Tides and Currents Weather Stations Pressure Air Temp Water Temp Dewpoint Dewpoint Depression Visibility Wind Speed Wind Dir Waves Ship Positions
date/time (UTC)wind fromknots sea level pressurealtimeterstation pressurevisibilityair tempwater tempwave heightnotes
2014-Jul-22 18:00 270 26 gusting 38 5.4 4.0
2014-Jul-22 17:00 250 22 5.4 5.0
2014-Jul-22 16:00 290 19 5.4 5.0
2014-Jul-22 15:00 250 14 3.0
2014-Jul-22 14:00 270 12 5.4 2.0
2014-Jul-22 13:00 270 14 5.4 2.0
2014-Jul-22 12:00 270 14 5.4 2.0
2014-Jul-22 11:00 290 15 2.0
2014-Jul-22 10:00 290 12 5.4 2.0
2014-Jul-22 09:00 320 16 2.0
2014-Jul-22 08:00 320 15 2.0
2014-Jul-22 07:00 340 11 1.0
2014-Jul-22 06:00 320 8 1.0
2014-Jul-22 05:00 290 2 -0.0
2014-Jul-22 04:00 320 4 -0.0
2014-Jul-22 03:00 -1.0
2014-Jul-22 02:00 270 9 1.0
2014-Jul-22 01:00 270 10 -0.0
2014-Jul-22 00:00 270 9 5.4 1.0
2014-Jul-21 23:00 290 6 5.4 1.0
2014-Jul-21 22:00 290 8 5.4 1.0
2014-Jul-21 21:00 270 5 5.4 2.0
2014-Jul-21 20:00 5.4 3.0
2014-Jul-21 19:00 270 5 4.0
2014-Jul-21 18:00 270 6 4.0
2014-Jul-21 17:00 4.0
2014-Jul-21 16:00 3.0
2014-Jul-21 15:00 3.0
2014-Jul-21 14:00 270 5 1.0
2014-Jul-21 13:00 320 10 -0.0
2014-Jul-21 12:00 -0.0
2014-Jul-21 11:00 360 3 -3.0
2014-Jul-21 10:00 -4.0
2014-Jul-21 09:00 250 3 -2.0
2014-Jul-21 08:00 290 3 -3.0
2014-Jul-21 07:00 290 5 -1.0
2014-Jul-21 06:00 290 7 -2.0
2014-Jul-21 05:00 270 10 -2.0
2014-Jul-21 04:00 250 8 -1.0
2014-Jul-21 03:00 270 7 -1.0
2014-Jul-21 02:00 250 6 -1.0
2014-Jul-21 01:00 270 8 -1.0
2014-Jul-21 00:00 250 9 -0.0
2014-Jul-20 23:00 250 11 -0.0
2014-Jul-20 22:00 270 8 1.0
2014-Jul-20 21:00 250 9 2.0
2014-Jul-20 20:00 230 14 5.4 3.0
2014-Jul-20 19:00 230 15 5.4 4.0